Ainsworth, NE

6:41 PM CDT on October 14, 2019 (GMT -0500)
Ainsworth Municipal

Weather History for KANW - September, 2019

Change the Weather History Date:

Monday, September 23, 2019

  Actual Average Record
Temperature  
Mean Temperature 64 °F -  
Max Temperature 85 °F 69 °F 89 °F (2007)
Min Temperature 44 °F 44 °F 33 °F (2011)
Growing Degree Days 14 (Base 50)    
Moisture  
Dew Point 50 °F    
Average Humidity 66    
Maximum Humidity 100    
Minimum Humidity 22    
Precipitation  
Precipitation 0.00 in - - ()
Sea Level Pressure  
Sea Level Pressure 29.99 in    
Wind  
Wind Speed 4 mph ()    
Max Wind Speed 15 mph    
Max Gust Speed -    
Visibility 10.0 miles    
Events      
Averages and records for this station are not official NWS values.
T = Trace of Precipitation, MM = Missing Value Source: Averaged Metar Reports

Daily Weather History Graph

Daily Weather History Graph

Search for Another Location

Airport or City:

Astronomy

Sep. 23, 2019 Rise Set
Actual Time 7:28 AM CDT 7:35 PM CDT
Civil Twilight 7:00 AM CDT 8:03 PM CDT
Nautical Twilight 6:27 AM CDT 8:36 PM CDT
Astronomical Twilight 5:53 AM CDT 9:10 PM CDT
Moon 1:04 AM CDT (9/23) 4:38 PM CDT (9/23)
Length of Visible Light 13h 03m
Length of Day
12h 07m
Waning Crescent, 33% of the Moon is Illuminated
Sep 23
Waning Crescent
Sep 28
New
Oct 5
First Quarter
Oct 13
Full
Oct 21
Last Quarter

Hourly Weather History & Observations

Time (CDT) Temp. Windchill Dew Point Humidity Pressure Visibility Wind Dir Wind Speed Gust Speed Precip Events Conditions
12:15 AM 50.5 °F - 48.0 °F 91% 30.03 in 10.0 mi South 5.8 mph - N/A   Clear
12:35 AM 51.1 °F - 47.8 °F 89% 30.03 in 10.0 mi South 4.6 mph - N/A   Clear
12:55 AM 50.0 °F - 47.5 °F 91% 30.03 in 10.0 mi South 6.9 mph - N/A   Clear
1:15 AM 50.7 °F - 48.6 °F 92% 30.03 in 10.0 mi SSW 5.8 mph - N/A   Clear
1:35 AM 50.7 °F - 49.1 °F 94% 30.03 in 10.0 mi South 4.6 mph - N/A   Clear
1:55 AM 50.5 °F - 48.9 °F 94% 30.03 in 10.0 mi Calm Calm - N/A   Clear
2:15 AM 51.1 °F - 50.0 °F 96% 30.04 in 10.0 mi Calm Calm - N/A   Clear
2:35 AM 51.3 °F - 48.6 °F 90% 30.04 in 10.0 mi Calm Calm - N/A   Clear
2:55 AM 50.2 °F - 49.1 °F 96% 30.04 in 10.0 mi Calm Calm - N/A   Clear
3:15 AM 50.9 °F - 50.4 °F 98% 30.03 in 10.0 mi Calm Calm - N/A   Clear
3:35 AM 50.7 °F - 49.6 °F 96% 30.03 in 10.0 mi Calm Calm - N/A   Clear
3:50 AM 49.3 °F - 49.3 °F 100% 30.02 in 10.0 mi Calm Calm - N/A   Clear
4:15 AM 48.7 °F - 48.7 °F 100% 30.02 in 10.0 mi Calm Calm - N/A   Clear
4:30 AM 48.4 °F - 48.4 °F 100% 30.02 in 10.0 mi Calm Calm - N/A   Clear
5:18 AM 48.2 °F - 48.2 °F 100% 30.03 in 10.0 mi Calm Calm - N/A   Clear
5:38 AM 46.4 °F 45.2 °F 46.4 °F 100% 30.03 in 10.0 mi SW 3.5 mph - N/A   Clear
5:57 AM 48.2 °F - 48.2 °F 100% 30.03 in 10.0 mi Calm Calm - N/A   Clear
6:15 AM 48.7 °F - 48.7 °F 100% 30.03 in 10.0 mi Calm Calm - N/A   Clear
6:35 AM 45.5 °F - 44.6 °F 97% 30.03 in 10.0 mi Calm Calm - N/A   Clear
6:50 AM 44.8 °F - 44.8 °F 100% 30.03 in 10.0 mi Calm Calm - N/A   Clear
7:15 AM 45.7 °F - 45.7 °F 100% 30.03 in 10.0 mi Calm Calm - N/A   Clear
7:35 AM 45.5 °F - 45.5 °F 100% 30.03 in 10.0 mi Calm Calm - N/A   Clear
7:55 AM 45.5 °F - 45.5 °F 100% 30.03 in 10.0 mi Calm Calm - N/A   Clear
8:15 AM 46.9 °F - 46.9 °F 100% 30.03 in 10.0 mi Calm Calm - N/A   Clear
8:35 AM 50.7 °F - 50.7 °F 100% 30.03 in 10.0 mi Calm Calm - N/A   Clear
8:55 AM 53.8 °F - 52.2 °F 94% 30.03 in 10.0 mi Calm Calm - N/A   Clear
9:15 AM 57.2 °F - 52.9 °F 85% 30.03 in 10.0 mi Calm Calm - N/A   Clear
9:35 AM 61.3 °F - 52.0 °F 71% 30.04 in 10.0 mi SSW 3.5 mph - N/A   Clear
9:55 AM 63.7 °F - 50.9 °F 63% 30.03 in 10.0 mi SSW 3.5 mph - N/A   Clear
10:15 AM 65.7 °F - 49.5 °F 56% 30.03 in 10.0 mi SSW 5.8 mph - N/A   Clear
10:35 AM 67.3 °F - 49.8 °F 53% 30.03 in 10.0 mi SSW 5.8 mph - N/A   Clear
10:55 AM 69.4 °F - 48.4 °F 47% 30.03 in 10.0 mi SSW 4.6 mph - N/A   Clear
11:15 AM 70.9 °F - 46.6 °F 42% 30.03 in 10.0 mi SW 6.9 mph - N/A   Clear
11:35 AM 71.8 °F - 46.9 °F 41% 30.03 in 10.0 mi South 5.8 mph - N/A   Clear
11:55 AM 75.2 °F - 45.3 °F 34% 30.02 in 10.0 mi SW 15.0 mph - N/A   Clear
12:15 PM 75.0 °F - 47.3 °F 37% 30.02 in 10.0 mi WSW 10.4 mph - N/A   Clear
12:35 PM 75.0 °F - 48.6 °F 39% 30.02 in 10.0 mi SW 11.5 mph - N/A   Clear
12:55 PM 75.9 °F - 50.4 °F 41% 30.02 in 10.0 mi SW 10.4 mph - N/A   Clear
1:15 PM 77.2 °F - 50.4 °F 39% 30.01 in 10.0 mi West 10.4 mph - N/A   Clear
1:35 PM 78.8 °F - 50.7 °F 37% 29.99 in 10.0 mi West 8.1 mph - N/A   Clear
1:55 PM 79.3 °F - 50.5 °F 36% 29.98 in 10.0 mi WSW 4.6 mph - N/A   Clear
2:15 PM 81.0 °F - 50.7 °F 35% 29.98 in 10.0 mi West 8.1 mph - N/A   Clear
2:35 PM 81.7 °F - 50.7 °F 34% 29.97 in 10.0 mi WSW 3.5 mph - N/A   Clear
2:55 PM 83.3 °F - 49.3 °F 31% 29.96 in 10.0 mi West 4.6 mph - N/A   Clear
3:15 PM 84.0 °F - 47.3 °F 28% 29.95 in 10.0 mi West 3.5 mph - N/A   Clear
3:35 PM 84.6 °F - 44.8 °F 25% 29.95 in 10.0 mi SW 8.1 mph - N/A   Clear
3:55 PM 85.1 °F - 45.7 °F 25% 29.95 in 10.0 mi WSW 6.9 mph - N/A   Clear
4:15 PM 85.1 °F - 43.9 °F 24% 29.94 in 10.0 mi SW 9.2 mph - N/A   Clear
4:35 PM 84.6 °F - 42.4 °F 23% 29.94 in 10.0 mi WSW 4.6 mph - N/A   Clear
4:55 PM 85.1 °F - 41.7 °F 22% 29.94 in 10.0 mi West 8.1 mph - N/A   Clear
5:15 PM 83.8 °F - 43.7 °F 24% 29.93 in 10.0 mi Calm Calm - N/A   Clear
5:35 PM 83.3 °F - 45.7 °F 27% 29.94 in 10.0 mi Calm Calm - N/A   Clear
5:55 PM 83.7 °F - 42.8 °F 24% 29.92 in 10.0 mi Calm Calm - N/A   Clear
6:15 PM 82.0 °F - 54.0 °F 38% 29.92 in 10.0 mi Calm Calm - N/A   Clear
6:35 PM 78.1 °F - 56.8 °F 48% 29.92 in 10.0 mi South 3.5 mph - N/A   Clear
6:55 PM 77.0 °F - 55.4 °F 47% 29.92 in 10.0 mi South 3.5 mph - N/A   Clear
7:15 PM 75.0 °F - 53.6 °F 47% 29.92 in 10.0 mi SSE 3.5 mph - N/A   Clear
7:35 PM 71.4 °F - 55.6 °F 57% 29.91 in 10.0 mi South 5.8 mph - N/A   Clear
7:55 PM 70.3 °F - 55.2 °F 59% 29.91 in 10.0 mi South 5.8 mph - N/A   Clear
8:15 PM 65.8 °F - 55.6 °F 69% 29.91 in 10.0 mi South 8.1 mph - N/A   Clear
8:35 PM 63.9 °F - 55.4 °F 74% 29.91 in 10.0 mi South 8.1 mph - N/A   Clear
8:55 PM 64.9 °F - 54.9 °F 70% 29.91 in 10.0 mi South 6.9 mph - N/A   Clear
9:15 PM 64.4 °F - 54.9 °F 71% 29.92 in 10.0 mi SSW 8.1 mph - N/A   Clear
9:35 PM 64.9 °F - 55.0 °F 70% 29.92 in 10.0 mi South 9.2 mph - N/A   Clear
9:55 PM 65.5 °F - 55.9 °F 71% 29.91 in 10.0 mi South 6.9 mph - N/A   Clear
10:15 PM 64.8 °F - 57.0 °F 76% 29.92 in 10.0 mi SSW 6.9 mph - N/A   Clear
10:35 PM 68.0 °F - 57.2 °F 68% 29.92 in 10.0 mi SSW 9.2 mph - N/A   Clear
10:55 PM 68.2 °F - 57.7 °F 69% 29.92 in 10.0 mi SSW 9.2 mph - N/A   Clear
11:15 PM 67.1 °F - 58.1 °F 73% 29.93 in 10.0 mi SSW 9.2 mph - N/A   Clear
11:35 PM 66.7 °F - 58.5 °F 75% 29.92 in 10.0 mi SSW 9.2 mph - N/A   Clear
11:55 PM 66.6 °F - 59.0 °F 77% 29.93 in 10.0 mi SSW 9.2 mph - N/A   Clear